Location: Boone Canyon
(38.3180°N, 119.2504°W)
Time: 18:15:57
(UTC+00:00)

Cosmos 2237 - Pass Details

Date: 18 September 2020
Orbit: 848 x 853 km, 70.8° (Epoch: 19 October)

Event Time Altitude Azimuth Distance (km) Brightness Sun altitude
Rises 13:03:21 0° 201° (SSW) 3,405 7.1 -8.3°
Reaches altitude 10° 13:05:47 10° 201° (SSW) 2,472 6.3 -7.9°
Maximum altitude 13:11:29 89° 293° (WNW) 857 4.3 -6.8°
Drops below altitude 10° 13:17:13 10° 22° (NNE) 2,485 7.1 -5.6°
Sets 13:19:40 0° 23° (NNE) 3,423 7.8 -5.2°
